[[{"header":{"parameterUnit":"m.s-1","parameterCategory":2,"la1":30.2991,"la2":30.254,"lo1":-89.0895,"lo2":-89.0444,"dy":0.0017,"dx":0.0017,"nx":28,"ny":28,"refTime":"2024-02-09T03:00:00:Z","depth":"0","parameterNumber":2,"parameterNumberName":"U-component_of_CURRENTS"},"data":[0,0,0,0,0,0,0,0,0,0,0,0,0,0,0,0,0,0,0,0,0,0,0,0,0,0,0,0,0,0,0,0,0,0,0,0,0,0,0,0,0,0,0,0,0,0,0,0,0,0,0,0,0,0,0,0,0,0,0.1987,0.1988,0,0.2036,0.2036,0.2037,0.2047,0.2047,0.2046,0.2046,0.2056,0.2056,0.2057,0,0,0,0,0,0,0,0,0,0,0,0,0,0.1921,0.1922,0.1987,0.1988,0.1989,0.2036,0.2036,0.2037,0.2047,0.2047,0.2046,0.2046,0.2056,0.2056,0.2057,0,0,0,0,0,0,0,0,0,0,0,0,0,0.1956,0.1922,0.1987,0.2001,0.2003,0.2036,0.2036,0.2037,0.2047,0.2047,0.2046,0.2046,0.2056,0.2056,0.2057,0.2066,0,0,0.2059,0.2059,0,0,0,0,0,0,0,0,0.1954,0.1958,0.1998,0.2,0.2002,0.2037,0.2017,0.2045,0.2047,0.2028,0.2046,0.2046,0.2047,0.2049,0.2056,0.2066,0.2067,0.2059,0.2059,0.2059,0.206,0,0,0,0,0,0,0,0.1951,0.1956,0.2004,0.1999,0.2001,0.2011,0.2015,0.2022,0.2036,0.203,0.2031,0.204,0.2048,0.2055,0.2056,0.2067,0.2059,0.2059,0.206,0.206,0.2131,0.2132,0,0,0,0,0,0,0.1949,0.1954,0.2003,0.2006,0.1979,0.2012,0.2017,0.2024,0.2037,0.204,0.204,0.204,0.2055,0.2056,0.2057,0.2105,0.2059,0.206,0.206,0.2129,0.2131,0.2133,0,0,0,0,0,0,0.1947,0.1952,0.2001,0.1982,0.1989,0.2014,0.2022,0.2025,0.2037,0.2046,0.2047,0.2049,0.2054,0.2056,0.2076,0.2104,0.206,0.2061,0.2128,0.213,0.2132,0.2178,0,0,0,0,0,0,0.1945,0.1952,0.1956,0.1982,0.1991,0.2028,0.2022,0.2027,0.2044,0.2045,0.2054,0.2054,0.2054,0.2075,0.2076,0.2104,0.2061,0.2126,0.2129,0.2131,0.2174,0.2181,0.2187,0,0,0,0,0,0.1942,0.1946,0.1956,0.1962,0.1996,0.2029,0.2034,0.2049,0.2045,0.2057,0.2065,0.2054,0.2094,0.2077,0.2078,0.2106,0.2124,0.2128,0.2131,0.2171,0.218,0.2187,0,0,0,0,0,0,0.1914,0.1948,0.196,0.1972,0.2004,0.2032,0.2043,0.2053,0.2069,0.2067,0.2068,0.207,0.2103,0.2098,0.2078,0.2137,0.211,0.2113,0.214,0.2148,0.2154,0.2159,0.2062,0,0,0,0,0,0.1913,0.1927,0.1964,0.1975,0.1992,0.2018,0.2033,0.2047,0.2065,0.2072,0.2082,0.2095,0.2118,0.2126,0.2142,0.2166,0.2191,0.2188,0.2195,0.22,0.2206,0.2267,0.2279,0.2144,0.2144,0.2144,0,0,0.19,0.1926,0.193,0.1972,0.1994,0.2027,0.2026,0.2052,0.2081,0.207,0.2105,0.2117,0.2131,0.2167,0.218,0.2164,0.2257,0.2204,0.2209,0.2212,0.2272,0.2285,0.2297,0.2146,0.2146,0.2145,0,0,0.1896,0.1913,0.193,0.1963,0.2008,0.203,0.204,0.2077,0.2094,0.2129,0.2136,0.2167,0.219,0.2215,0.2228,0.2279,0.2291,0.2283,0.2316,0.2375,0.2387,0.2397,0.2466,0.2482,0.2284,0.2284,0.2284,0,0.1882,0.1915,0.194,0.1976,0.2006,0.2033,0.2067,0.2093,0.2132,0.2159,0.2145,0.2213,0.2218,0.2277,0.2295,0.2294,0.2331,0.2283,0.2384,0.2395,0.2405,0.2472,0.2489,0.2286,0.2286,0.2286,0.2285,0,0.1902,0.1933,0.1948,0.2005,0.2038,0.2071,0.2117,0.2151,0.2172,0.2204,0.2264,0.2278,0.2323,0.233,0.2325,0.2402,0.2409,0.2387,0.2363,0.2421,0.2489,0.2506,0.229,0.2289,0.2288,0.2288,0,0,0.1858,0.1943,0.195,0.1989,0.2059,0.2089,0.2145,0.2211,0.2256,0.2291,0.2356,0.2391,0.2405,0.2421,0.2426,0.2465,0.2568,0.2455,0.2457,0.2521,0.2716,0.2772,0.2796,0.2564,0.2567,0.2569,0.2743,0,0.1869,0.1938,0.198,0.2046,0.2087,0.2141,0.2193,0.2257,0.2305,0.2374,0.241,0.2465,0.2439,0.2465,0.2506,0.2556,0.2612,0.2524,0.2652,0.2656,0.2697,0.2817,0.2811,0.297,0.276,0.2762,0.2764,0,0.1877,0.1928,0.1991,0.2084,0.2106,0.2147,0.2245,0.2294,0.2396,0.244,0.2507,0.254,0.2622,0.2576,0.2704,0.2652,0.2693,0.2719,0.2726,0.2772,0.2744,0.2875,0.3009,0.295,0.2791,0.2789,0.2787,0,0.1845,0.1936,0.1986,0.2019,0.2122,0.2162,0.2214,0.2311,0.2379,0.2484,0.2554,0.2639,0.2707,0.2762,0.2835,0.2778,0.2978,0.2906,0.2999,0.3003,0.3021,0.3023,0.3111,0.3002,0.3002,0.3001,0.3001,0,0.1844,0.1886,0.1974,0.2006,0.2069,0.2144,0.222,0.229,0.2414,0.2501,0.258,0.2679,0.2757,0.2876,0.29,0.3041,0.3046,0.3047,0.3067,0.304,0.3041,0.3006,0.2953,0.3008,0.3006,0.3005,0.3004,0,0.1802,0.1862,0.1923,0.2024,0.2055,0.2094,0.2222,0.2286,0.2406,0.2527,0.2572,0.2759,0.2922,0.3016,0.3143,0.3156,0.3196,0.3289,0.3265,0.3279,0.3276,0.3226,0.3198,0.3092,0.3417,0.342,0.3422,0,0.1789,0.1814,0.1911,0.1943,0.1987,0.206,0.2117,0.2258,0.2339,0.2569,0.2635,0.2857,0.3013,0.3271,0.3359,0.3482,0.3322,0.3512,0.3392,0.3323,0.3282,0.3081,0.2976,0.3441,0.3443,0.3445,0.3446,0,0.1757,0.1785,0.1836,0.1896,0.1954,0.2021,0.2118,0.2193,0.2359,0.2502,0.2712,0.2867,0.3171,0.3348,0.3544,0.3589,0.3383,0.3553,0.3489,0.3337,0.3118,0.301,0.3276,0.3462,0.3461,0.346,0.3459,0.3458,0.1722,0.1739,0.1797,0.185,0.191,0.197,0.2008,0.2143,0.2288,0.2491,0.2689,0.2922,0.3264,0.357,0.3588,0.3666,0.3514,0.3593,0.3552,0.3363,0.3216,0.3535,0.373,0.373,0.373,0.373,0.373,0,0.1674,0.1707,0.1751,0.1808,0.1837,0.1898,0.2,0.204,0.2177,0.2445,0.2649,0.3056,0.3329,0.3545,0.3797,0.3703,0.3451,0.3596,0.3305,0.3205,0.3538,0.3496,0.3641,0.3641,0.3641,0.3641,0.3641,0.3641,0.1655,0.1674,0.17,0.1723,0.176,0.178,0.1821,0.191,0.2087,0.2375,0.2641,0.2886,0.336,0.3764,0.3841,0.3736,0.3378,0.3282,0.3147,0.3411,0.3404,0.3398,0.3346,0.3457,0.3456,0.2704,0.2699,0.2695]},{"header":{"parameterUnit":"m.s-1","parameterCategory":2,"la1":30.2991,"la2":30.254,"lo1":-89.0895,"lo2":-89.0444,"dy":0.0017,"dx":0.0017,"nx":28,"ny":28,"refTime":"2024-02-09T03:00:00:Z","depth":"0","parameterNumber":3,"parameterNumberName":"V-component_of_CURRENTS"},"data":[0,0,0,0,0,0,0,0,0,0,0,0,0,0,0,0,0,0,0,0,0,0,0,0,0,0,0,0,0,0,0,0,0,0,0,0,0,0,0,0,0,0,0,0,0,0,0,0,0,0,0,0,0,0,0,0,0,0,-0.0152,-0.0152,0,-0.023,-0.0231,-0.0232,-0.0296,-0.0297,-0.0298,-0.0298,-0.0429,-0.0432,-0.0435,0,0,0,0,0,0,0,0,0,0,0,0,0,-0.009,-0.0091,-0.0151,-0.0152,-0.0153,-0.023,-0.0231,-0.0232,-0.0296,-0.0297,-0.0298,-0.0298,-0.0428,-0.0432,-0.0435,0,0,0,0,0,0,0,0,0,0,0,0,0,-0.0138,-0.0091,-0.0151,-0.0194,-0.0199,-0.023,-0.0231,-0.0233,-0.0296,-0.0297,-0.0298,-0.0299,-0.0427,-0.0431,-0.0436,-0.0444,0,0,-0.0449,-0.0451,0,0,0,0,0,0,0,0,-0.0135,-0.014,-0.0187,-0.0191,-0.0196,-0.0254,-0.0258,-0.0306,-0.0296,-0.026,-0.0298,-0.0299,-0.0374,-0.0383,-0.0396,-0.045,-0.0456,-0.0449,-0.0452,-0.0454,-0.0455,0,0,0,0,0,0,0,-0.0132,-0.0137,-0.0183,-0.0188,-0.0194,-0.0221,-0.0228,-0.0267,-0.0312,-0.0263,-0.0267,-0.0275,-0.0378,-0.0391,-0.04,-0.0458,-0.0449,-0.0453,-0.0456,-0.0458,-0.0531,-0.053,0,0,0,0,0,0,-0.0118,-0.0134,-0.0181,-0.0185,-0.0167,-0.0221,-0.023,-0.0235,-0.0311,-0.0323,-0.0274,-0.0278,-0.0384,-0.0394,-0.0404,-0.042,-0.0454,-0.0458,-0.046,-0.0531,-0.053,-0.053,0,0,0,0,0,0,-0.0116,-0.0121,-0.0177,-0.0161,-0.017,-0.0221,-0.0227,-0.0236,-0.0252,-0.0319,-0.0332,-0.028,-0.0385,-0.0398,-0.044,-0.0426,-0.046,-0.0464,-0.0532,-0.0531,-0.053,-0.0451,0,0,0,0,0,0,-0.0114,-0.012,-0.0116,-0.016,-0.0171,-0.0187,-0.0226,-0.0237,-0.0255,-0.026,-0.0328,-0.0341,-0.0386,-0.0433,-0.0444,-0.0432,-0.0467,-0.0533,-0.0532,-0.053,-0.0454,-0.0447,-0.0441,0,0,0,0,0,-0.0112,-0.0098,-0.0115,-0.0121,-0.0164,-0.0187,-0.0194,-0.0234,-0.0254,-0.0253,-0.0304,-0.0339,-0.0432,-0.0436,-0.0449,-0.0439,-0.0534,-0.0532,-0.053,-0.0457,-0.0449,-0.0442,0,0,0,0,0,0,-0.0065,-0.0105,-0.0124,-0.0122,-0.0149,-0.0197,-0.0197,-0.0226,-0.0265,-0.0271,-0.0338,-0.0354,-0.0386,-0.042,-0.0422,-0.0455,-0.0486,-0.0487,-0.0426,-0.0418,-0.0412,-0.0391,-0.0471,0,0,0,0,0,-0.0052,-0.0054,-0.0097,-0.0093,-0.0104,-0.0149,-0.0162,-0.0189,-0.023,-0.0247,-0.0295,-0.0344,-0.0388,-0.0409,-0.0453,-0.047,-0.0508,-0.0469,-0.0462,-0.0457,-0.0448,-0.0503,-0.0501,-0.0525,-0.0525,-0.0525,0,0,-0.0033,-0.0054,-0.0055,-0.0084,-0.0107,-0.0112,-0.0159,-0.0171,-0.0177,-0.0255,-0.0275,-0.0328,-0.0389,-0.0414,-0.0429,-0.0441,-0.0467,-0.0455,-0.0449,-0.0444,-0.0501,-0.0499,-0.0497,-0.0524,-0.0524,-0.0524,0,0,0.0009,-0.0012,-0.0001,-0.002,-0.0049,-0.0077,-0.0077,-0.012,-0.0141,-0.0168,-0.0227,-0.0271,-0.0328,-0.0372,-0.0402,-0.0384,-0.0435,-0.039,-0.0337,-0.039,-0.0389,-0.0388,-0.042,-0.0423,-0.0381,-0.0381,-0.038,0,0.0035,0.0037,0.0,0.0005,-0.0003,-0.0056,-0.0046,-0.0071,-0.0122,-0.0139,-0.0161,-0.0255,-0.0309,-0.0349,-0.0341,-0.037,-0.0399,-0.0362,-0.0381,-0.0382,-0.0382,-0.0416,-0.042,-0.0377,-0.0377,-0.0377,-0.0378,0,0.0078,0.008,0.0088,0.0074,0.0062,0.0064,0.0023,0.0008,-0.0025,-0.0059,-0.0103,-0.0177,-0.0234,-0.0252,-0.0292,-0.0317,-0.0335,-0.0372,-0.04,-0.0375,-0.0412,-0.0418,-0.0371,-0.0372,-0.0373,-0.0374,0,0,0.0135,0.0121,0.0123,0.0128,0.0097,0.0094,0.0087,0.006,0.0056,0.0003,-0.0012,-0.0089,-0.0132,-0.0168,-0.0225,-0.0263,-0.0293,-0.0305,-0.0309,-0.0333,-0.0392,-0.0384,-0.039,-0.0333,-0.0334,-0.0334,-0.0411,0,0.0179,0.0204,0.0182,0.0208,0.0216,0.0171,0.0169,0.0138,0.0102,0.0077,-0.0002,-0.0038,-0.0099,-0.0121,-0.0171,-0.0267,-0.0306,-0.0268,-0.0416,-0.042,-0.0414,-0.0396,-0.0367,-0.0432,-0.0417,-0.0418,-0.0419,0,0.0223,0.0233,0.0264,0.0267,0.0268,0.0273,0.0257,0.0249,0.0195,0.0166,0.0113,0.0053,-0.0015,-0.0067,-0.0211,-0.0181,-0.0275,-0.0346,-0.0352,-0.0376,-0.0423,-0.0458,-0.0443,-0.0631,-0.0429,-0.0428,-0.0427,0,0.0274,0.0291,0.0318,0.0318,0.0312,0.0317,0.031,0.0273,0.0282,0.0224,0.0226,0.0121,0.0083,-0.005,-0.019,-0.0205,-0.0339,-0.0391,-0.0471,-0.0472,-0.0492,-0.0492,-0.0674,-0.0492,-0.0492,-0.0492,-0.0492,0,0.0322,0.0345,0.0344,0.0358,0.0394,0.0369,0.0398,0.0371,0.0359,0.0382,0.0279,0.0285,0.0088,-0.0007,-0.0159,-0.0316,-0.0324,-0.0454,-0.0491,-0.0461,-0.0457,-0.0658,-0.0787,-0.0495,-0.0494,-0.0494,-0.0493,0,0.0366,0.0365,0.04,0.0409,0.0417,0.044,0.0468,0.0491,0.0466,0.0496,0.049,0.0406,0.0287,0.0099,-0.011,-0.0258,-0.0538,-0.048,-0.0414,-0.0442,-0.0697,-0.082,-0.105,-0.116,-0.0591,-0.0591,-0.0591,0,0.039,0.0411,0.0443,0.0471,0.0478,0.0511,0.0539,0.0537,0.0575,0.0584,0.0613,0.0525,0.0495,0.0202,-0.0082,-0.0341,-0.0541,-0.0498,-0.0533,-0.0699,-0.0866,-0.0953,-0.1036,-0.053,-0.0529,-0.0529,-0.0529,0,0.0437,0.0445,0.0473,0.0531,0.0572,0.0628,0.0674,0.073,0.0742,0.0787,0.0844,0.0835,0.0569,0.0327,-0.0036,-0.0226,-0.0646,-0.0501,-0.0705,-0.0855,-0.0932,-0.1057,-0.0483,-0.0527,-0.0527,-0.0527,-0.0527,-0.0527,0.0471,0.0501,0.054,0.0597,0.0654,0.0744,0.0815,0.0891,0.0989,0.1097,0.1055,0.1108,0.0721,0.0242,-0.0077,-0.0613,-0.0654,-0.0767,-0.0907,-0.0982,-0.1082,-0.0483,-0.0549,-0.0549,-0.055,-0.055,-0.055,0,0.051,0.0546,0.0605,0.0681,0.0762,0.0783,0.0907,0.1003,0.1153,0.128,0.136,0.1255,0.0749,0.0228,-0.0515,-0.093,-0.1107,-0.1163,-0.1301,-0.1372,-0.086,-0.0849,-0.0942,-0.0942,-0.0942,-0.0941,-0.0941,-0.0941,0.0534,0.0593,0.0624,0.076,0.0825,0.096,0.1049,0.1207,0.1341,0.1546,0.1641,0.1667,0.1307,-0.0137,-0.1133,-0.1374,-0.1685,-0.1741,-0.1936,-0.1599,-0.1573,-0.1548,-0.1566,-0.1808,-0.181,-0.2369,-0.2375,-0.2379]}],[{"header":{"parameterUnit":"m.s-1","parameterCategory":2,"la1":30.2991,"la2":30.254,"lo1":-89.0895,"lo2":-89.0444,"dy":0.0017,"dx":0.0017,"nx":28,"ny":28,"refTime":"2024-02-09T03:00:00:Z","depth":"2","parameterNumber":2,"parameterNumberName":"U-component_of_CURRENTS"},"data":[0,0,0,0,0,0,0,0,0,0,0,0,0,0,0,0,0,0,0,0,0,0,0,0,0,0,0,0,0,0,0,0,0,0,0,0,0,0,0,0,0,0,0,0,0,0,0,0,0,0,0,0,0,0,0,0,0,0,0.2021,0.2022,0,0.2062,0.2062,0.2063,0.2075,0.2075,0.2075,0.2075,0.2094,0.2095,0.2095,0,0,0,0,0,0,0,0,0,0,0,0,0,0.1955,0.1956,0.2021,0.2022,0.2023,0.2062,0.2062,0.2063,0.2075,0.2075,0.2075,0.2075,0.2094,0.2094,0.2095,0,0,0,0,0,0,0,0,0,0,0,0,0,0.1987,0.1957,0.2021,0.2035,0.2037,0.2062,0.2062,0.2063,0.2075,0.2075,0.2075,0.2075,0.2094,0.2094,0.2095,0.2101,0,0,0.2098,0.2098,0,0,0,0,0,0,0,0,0.1985,0.1989,0.2032,0.2034,0.2036,0.2065,0.2046,0.2075,0.2075,0.2059,0.2075,0.2075,0.2083,0.2085,0.2091,0.2102,0.2103,0.2098,0.2098,0.2099,0.2099,0,0,0,0,0,0,0,0.1983,0.1988,0.2036,0.2033,0.2035,0.2039,0.2044,0.2052,0.2069,0.206,0.2062,0.2069,0.2084,0.209,0.2091,0.2103,0.2098,0.2098,0.2099,0.2099,0.2168,0.2169,0,0,0,0,0,0,0.1982,0.1986,0.2034,0.2037,0.2012,0.2041,0.2045,0.2054,0.207,0.2073,0.2069,0.2069,0.2089,0.209,0.2092,0.2142,0.2099,0.2099,0.21,0.2166,0.2168,0.2169,0,0,0,0,0,0,0.198,0.1986,0.2033,0.2013,0.202,0.2042,0.2052,0.2055,0.2069,0.2077,0.2079,0.2081,0.2089,0.2091,0.2113,0.2141,0.21,0.21,0.2165,0.2167,0.2169,0.2214,0,0,0,0,0,0,0.1978,0.1985,0.1992,0.2013,0.2021,0.2058,0.2052,0.2056,0.2074,0.2075,0.2088,0.2089,0.2089,0.2111,0.2113,0.2141,0.2101,0.2163,0.2166,0.2168,0.2211,0.2218,0.2223,0,0,0,0,0,0.1976,0.1988,0.1993,0.1999,0.203,0.2059,0.2064,0.2078,0.2075,0.2088,0.2097,0.2089,0.2129,0.2113,0.2115,0.2144,0.2162,0.2165,0.2168,0.2209,0.2216,0.2223,0,0,0,0,0,0,0.1961,0.1991,0.1997,0.2017,0.2041,0.2062,0.2079,0.2083,0.21,0.2102,0.2102,0.2104,0.2136,0.2133,0.2115,0.2172,0.2146,0.2149,0.2176,0.2184,0.219,0.219,0.2102,0,0,0,0,0,0.1962,0.1983,0.2008,0.2026,0.204,0.2059,0.2073,0.2083,0.2101,0.2108,0.2116,0.2129,0.2149,0.216,0.2173,0.22,0.2215,0.2222,0.2228,0.2233,0.2235,0.2284,0.2295,0.2179,0.2179,0.2179,0,0,0.1959,0.1982,0.1991,0.2025,0.2045,0.2069,0.2068,0.2096,0.2116,0.2107,0.2137,0.2149,0.2161,0.2196,0.221,0.2196,0.2277,0.2237,0.2241,0.224,0.2288,0.23,0.231,0.2181,0.2181,0.218,0,0,0.197,0.1989,0.2009,0.2032,0.2068,0.2084,0.2093,0.2121,0.2137,0.2164,0.217,0.2198,0.2219,0.2241,0.2252,0.2298,0.2307,0.2307,0.2338,0.2386,0.2396,0.2405,0.2451,0.2464,0.231,0.231,0.231,0,0.1964,0.1995,0.202,0.2046,0.2068,0.2091,0.2116,0.2137,0.2167,0.219,0.218,0.2237,0.2242,0.2295,0.2312,0.2313,0.2341,0.2308,0.2394,0.2403,0.2411,0.2457,0.247,0.2313,0.2312,0.2312,0.2312,0,0.1992,0.2015,0.2032,0.2074,0.21,0.2129,0.2161,0.219,0.2208,0.223,0.2283,0.2297,0.2334,0.2343,0.234,0.2408,0.2411,0.2396,0.2374,0.2426,0.2471,0.2484,0.2316,0.2315,0.2315,0.2314,0,0,0.1977,0.2039,0.2043,0.2064,0.2117,0.2139,0.2187,0.2238,0.2274,0.2304,0.2356,0.239,0.2404,0.2418,0.2427,0.2462,0.2545,0.2456,0.2457,0.2501,0.2661,0.2685,0.2701,0.255,0.2552,0.2554,0.2674,0,0.1991,0.2034,0.2069,0.2111,0.2134,0.2179,0.2222,0.2271,0.2312,0.2368,0.2403,0.245,0.2433,0.2458,0.2495,0.2536,0.2579,0.2514,0.2606,0.2609,0.2622,0.2717,0.2522,0.2615,0.2687,0.2689,0.269,0,0.1999,0.2031,0.207,0.213,0.2147,0.2179,0.2256,0.2297,0.2383,0.2421,0.248,0.2511,0.2583,0.2549,0.2652,0.2616,0.2644,0.2664,0.2669,0.2682,0.2657,0.2573,0.2636,0.2712,0.271,0.2709,0.2707,0,0.1965,0.2027,0.2057,0.2077,0.2151,0.2186,0.223,0.2312,0.2367,0.2459,0.2516,0.2591,0.2651,0.2695,0.2752,0.2712,0.2864,0.2811,0.2858,0.286,0.2707,0.2692,0.2881,0.2881,0.2881,0.2881,0.288,0,0.1956,0.1977,0.2043,0.2058,0.2106,0.2165,0.2229,0.2288,0.2394,0.2464,0.254,0.2619,0.2692,0.2785,0.2803,0.2899,0.2915,0.2892,0.2905,0.272,0.2705,0.2787,0.2774,0.2885,0.2884,0.2883,0.2883,0,0.1903,0.1948,0.1983,0.2061,0.2087,0.2116,0.2225,0.2274,0.2382,0.2481,0.252,0.2678,0.2808,0.2885,0.2984,0.2983,0.3049,0.307,0.2857,0.2844,0.2993,0.2981,0.3132,0.3134,0.3136,0.3138,0.3139,0,0.1876,0.189,0.1963,0.1987,0.2022,0.2081,0.2127,0.2248,0.2315,0.2507,0.2561,0.274,0.2852,0.3045,0.3089,0.3167,0.3147,0.3007,0.2889,0.3028,0.3025,0.301,0.2996,0.27,0.2698,0.2696,0.2694,0,0.1828,0.1856,0.1888,0.1933,0.1979,0.203,0.2113,0.2169,0.2314,0.2423,0.2584,0.2697,0.2916,0.2948,0.3082,0.3076,0.2979,0.2973,0.3187,0.268,0.2634,0.2626,0.2624,0.2677,0.2678,0.268,0.2681,0.2681,0.1788,0.1794,0.184,0.1878,0.1925,0.1968,0.199,0.2099,0.2204,0.2348,0.2514,0.263,0.2745,0.2875,0.2841,0.282,0.2998,0.2848,0.2848,0.2851,0.2792,0.2754,0.2808,0.281,0.2812,0.2814,0.2816,0,0.173,0.1754,0.1784,0.1825,0.1838,0.1896,0.1972,0.1987,0.2071,0.2249,0.2387,0.2324,0.2428,0.2515,0.2491,0.2541,0.2436,0.2419,0.2249,0.2274,0.2295,0.2198,0.206,0.2057,0.2054,0.2051,0,0,0.1704,0.1708,0.1726,0.1728,0.1756,0.1756,0.1779,0.1823,0.1931,0.1998,0.2074,0.2336,0.2484,0.2228,0.2243,0.2142,0.2163,0.2064,0.2691,0.2519,0.2533,0.2593,0.2483,0,0,0,0,0]},{"header":{"parameterUnit":"m.s-1","parameterCategory":2,"la1":30.2991,"la2":30.254,"lo1":-89.0895,"lo2":-89.0444,"dy":0.0017,"dx":0.0017,"nx":28,"ny":28,"refTime":"2024-02-09T03:00:00:Z","depth":"2","parameterNumber":3,"parameterNumberName":"V-component_of_CURRENTS"},"data":[0,0,0,0,0,0,0,0,0,0,0,0,0,0,0,0,0,0,0,0,0,0,0,0,0,0,0,0,0,0,0,0,0,0,0,0,0,0,0,0,0,0,0,0,0,0,0,0,0,0,0,0,0,0,0,0,0,0,-0.0231,-0.0232,0,-0.0299,-0.03,-0.03,-0.0345,-0.0345,-0.0345,-0.0345,-0.0443,-0.0445,-0.0447,0,0,0,0,0,0,0,0,0,0,0,0,0,-0.0158,-0.0159,-0.0231,-0.0232,-0.0233,-0.0299,-0.03,-0.03,-0.0345,-0.0345,-0.0345,-0.0346,-0.0442,-0.0445,-0.0447,0,0,0,0,0,0,0,0,0,0,0,0,0,-0.0204,-0.016,-0.0231,-0.0263,-0.0266,-0.0298,-0.03,-0.0301,-0.0344,-0.0345,-0.0345,-0.0346,-0.0441,-0.0444,-0.0448,-0.046,0,0,-0.0458,-0.046,0,0,0,0,0,0,0,0,-0.0201,-0.0207,-0.0257,-0.0261,-0.0265,-0.0314,-0.031,-0.0356,-0.0344,-0.0315,-0.0345,-0.0346,-0.0402,-0.0409,-0.042,-0.0465,-0.0469,-0.0459,-0.0461,-0.0462,-0.0463,0,0,0,0,0,0,0,-0.0198,-0.0204,-0.0258,-0.0258,-0.0263,-0.028,-0.0287,-0.0318,-0.0355,-0.0317,-0.0321,-0.0328,-0.0404,-0.0416,-0.0422,-0.047,-0.0458,-0.0462,-0.0464,-0.0465,-0.0531,-0.053,0,0,0,0,0,0,-0.0189,-0.0201,-0.0255,-0.026,-0.0234,-0.0281,-0.0289,-0.0297,-0.0354,-0.0363,-0.0328,-0.033,-0.041,-0.0418,-0.0426,-0.0439,-0.0462,-0.0465,-0.0467,-0.0531,-0.0531,-0.053,0,0,0,0,0,0,-0.0187,-0.0193,-0.0253,-0.0232,-0.0241,-0.0282,-0.0291,-0.0299,-0.0313,-0.0362,-0.0372,-0.0335,-0.0411,-0.0421,-0.0454,-0.0443,-0.0467,-0.047,-0.0531,-0.0531,-0.053,-0.0468,0,0,0,0,0,0,-0.0185,-0.0192,-0.0194,-0.0231,-0.0242,-0.0268,-0.0291,-0.03,-0.0317,-0.032,-0.0371,-0.0381,-0.0412,-0.0449,-0.0457,-0.0449,-0.0473,-0.0532,-0.0531,-0.0531,-0.0471,-0.0466,-0.0461,0,0,0,0,0,-0.0182,-0.0182,-0.0193,-0.02,-0.0243,-0.0268,-0.0274,-0.0305,-0.0316,-0.032,-0.0355,-0.0379,-0.0451,-0.0451,-0.0462,-0.0454,-0.0532,-0.0531,-0.0531,-0.0473,-0.0467,-0.0461,0,0,0,0,0,0,-0.0151,-0.0188,-0.0201,-0.0212,-0.0236,-0.0275,-0.0281,-0.0301,-0.0331,-0.0334,-0.038,-0.0392,-0.0418,-0.0444,-0.0443,-0.047,-0.0493,-0.0495,-0.0446,-0.044,-0.0436,-0.0413,-0.0476,0,0,0,0,0,-0.0144,-0.0155,-0.019,-0.0198,-0.0208,-0.0242,-0.0256,-0.0275,-0.0307,-0.032,-0.0354,-0.039,-0.0422,-0.0437,-0.0472,-0.0486,-0.0514,-0.0486,-0.0482,-0.0477,-0.0466,-0.0506,-0.0504,-0.0528,-0.0528,-0.0528,0,0,-0.0135,-0.0156,-0.0162,-0.0192,-0.0212,-0.0216,-0.0252,-0.0267,-0.0268,-0.0326,-0.0338,-0.0379,-0.0425,-0.0443,-0.0456,-0.0463,-0.0484,-0.0476,-0.0472,-0.0463,-0.0505,-0.0503,-0.0501,-0.0527,-0.0527,-0.0528,0,0,-0.0115,-0.0138,-0.0137,-0.0152,-0.0177,-0.0197,-0.0198,-0.0233,-0.0247,-0.0267,-0.0308,-0.034,-0.0385,-0.0414,-0.0435,-0.0424,-0.0463,-0.0433,-0.0387,-0.0425,-0.0424,-0.0422,-0.045,-0.0452,-0.0425,-0.0425,-0.0425,0,-0.01,-0.0104,-0.0139,-0.0138,-0.014,-0.0183,-0.0172,-0.0193,-0.0232,-0.0239,-0.0261,-0.0327,-0.037,-0.0391,-0.0387,-0.0413,-0.0438,-0.0404,-0.0419,-0.0418,-0.0418,-0.0447,-0.0449,-0.0422,-0.0422,-0.0422,-0.0423,0,-0.0077,-0.0078,-0.0077,-0.0087,-0.0094,-0.0094,-0.0121,-0.0131,-0.0153,-0.0177,-0.0206,-0.0265,-0.0301,-0.032,-0.0352,-0.0366,-0.0385,-0.0413,-0.043,-0.0412,-0.0443,-0.0447,-0.0417,-0.0418,-0.0419,-0.042,0,0,-0.0047,-0.0058,-0.0056,-0.0042,-0.0064,-0.0061,-0.0063,-0.0074,-0.0067,-0.0115,-0.0114,-0.0177,-0.0212,-0.0237,-0.0284,-0.0314,-0.0339,-0.0353,-0.0357,-0.0374,-0.0416,-0.0419,-0.0424,-0.0371,-0.0372,-0.0372,-0.0436,0,-0.0015,0.0009,-0.0009,0.0024,0.0039,0.0011,0.0016,0.0001,-0.0022,-0.0033,-0.0098,-0.012,-0.0179,-0.0193,-0.0236,-0.0313,-0.0347,-0.0319,-0.0436,-0.0439,-0.044,-0.0428,-0.0398,-0.0452,-0.044,-0.0441,-0.0441,0,0.0017,0.0032,0.0068,0.0091,0.0096,0.0106,0.0121,0.0119,0.0085,0.0063,0.0024,-0.0025,-0.0078,-0.0132,-0.025,-0.0229,-0.0313,-0.0376,-0.0381,-0.0406,-0.045,-0.0471,-0.046,-0.0449,-0.0448,-0.0448,-0.0447,0,0.0069,0.009,0.0127,0.0132,0.0144,0.0159,0.0164,0.0148,0.0166,0.0126,0.0133,0.0049,0.0019,-0.0097,-0.0224,-0.0239,-0.0352,-0.0396,-0.0479,-0.048,-0.0488,-0.0489,-0.0481,-0.0481,-0.048,-0.048,-0.048,0,0.0111,0.0144,0.0154,0.0176,0.0227,0.0214,0.0257,0.0247,0.0247,0.0279,0.0188,0.0198,0.0027,-0.0054,-0.0191,-0.0335,-0.0333,-0.0463,-0.0495,-0.0465,-0.0463,-0.0488,-0.0488,-0.0483,-0.0482,-0.0482,-0.0481,0,0.0159,0.0162,0.0212,0.0238,0.0252,0.0288,0.0328,0.0361,0.0344,0.0386,0.0383,0.0312,0.0203,0.0037,-0.0145,-0.0278,-0.0425,-0.048,-0.0423,-0.0448,-0.0538,-0.0534,-0.0583,-0.0584,-0.0584,-0.0585,-0.0585,0,0.0185,0.0213,0.0264,0.0301,0.0314,0.036,0.0396,0.0404,0.0448,0.0466,0.05,0.042,0.0382,0.0116,-0.0136,-0.037,-0.041,-0.0502,-0.0533,-0.0521,-0.0548,-0.0543,-0.0539,-0.0522,-0.0521,-0.0521,-0.0521,0,0.0243,0.0257,0.0298,0.0369,0.0419,0.0481,0.0537,0.0592,0.0612,0.0653,0.0703,0.0683,0.0435,0.0212,-0.0117,-0.0285,-0.0464,-0.0507,-0.0511,-0.0494,-0.0467,-0.0492,-0.0489,-0.052,-0.052,-0.052,-0.052,-0.052,0.0288,0.0326,0.0377,0.0447,0.0511,0.0599,0.0666,0.0737,0.0826,0.0912,0.0873,0.0859,0.0582,0.0186,-0.0121,-0.0451,-0.0448,-0.0558,-0.0557,-0.0556,-0.0532,-0.0506,-0.0562,-0.0562,-0.0562,-0.0563,-0.0563,0,0.0344,0.0384,0.0453,0.0539,0.0619,0.0643,0.0762,0.0837,0.0958,0.1038,0.1086,0.0867,0.0596,0.0271,-0.0212,-0.0503,-0.0537,-0.0592,-0.0566,-0.0565,-0.0564,-0.054,-0.0573,-0.0573,-0.0574,-0.0575,0,0,0.0377,0.0447,0.0478,0.0615,0.0681,0.0804,0.0882,0.1001,0.1089,0.1182,0.1194,0.115,0.0738,0.0402,-0.0008,-0.0288,-0.0361,-0.0347,-0.0308,-0.0228,-0.0224,-0.0514,-0.0471,0,0,0,0,0]}],[{"header":{"parameterUnit":"m.s-1","parameterCategory":2,"la1":30.2991,"la2":30.254,"lo1":-89.0895,"lo2":-89.0444,"dy":0.0017,"dx":0.0017,"nx":28,"ny":28,"refTime":"2024-02-09T03:00:00:Z","depth":"4","parameterNumber":2,"parameterNumberName":"U-component_of_CURRENTS"},"data":[0,0,0,0,0,0,0,0,0,0,0,0,0,0,0,0,0,0,0,0,0,0,0,0,0,0,0,0,0,0,0,0,0,0,0,0,0,0,0,0,0,0,0,0,0,0,0,0,0,0,0,0,0,0,0,0,0,0,0.1415,0.1415,0,0.148,0.148,0.1481,0.1537,0.1538,0.1539,0.1539,0.1614,0.1615,0.1616,0,0,0,0,0,0,0,0,0,0,0,0,0,0.1331,0.1332,0.1414,0.1415,0.1416,0.148,0.148,0.1481,0.1537,0.1538,0.1539,0.154,0.1613,0.1615,0.1616,0,0,0,0,0,0,0,0,0,0,0,0,0,0.1378,0.1333,0.1414,0.1453,0.1457,0.1479,0.148,0.1481,0.1537,0.1538,0.1539,0.154,0.1613,0.1615,0.1617,0.1607,0,0,0.1623,0.1623,0,0,0,0,0,0,0,0,0.1375,0.1381,0.1446,0.145,0.1455,0.1502,0.1479,0.1524,0.1536,0.1505,0.1539,0.1541,0.1577,0.1582,0.159,0.161,0.1613,0.1623,0.1624,0.1625,0.1625,0,0,0,0,0,0,0,0.1372,0.1378,0.1439,0.1447,0.1452,0.1464,0.1472,0.1487,0.1533,0.1508,0.1512,0.1521,0.158,0.1588,0.1592,0.1614,0.1623,0.1624,0.1626,0.1626,0.1731,0.1732,0,0,0,0,0,0,0.1365,0.1375,0.1437,0.1441,0.1418,0.1465,0.1474,0.1485,0.1533,0.1542,0.152,0.1524,0.1584,0.159,0.1595,0.1679,0.1625,0.1627,0.1628,0.1729,0.1731,0.1733,0,0,0,0,0,0,0.1363,0.137,0.1435,0.141,0.142,0.1465,0.1478,0.1486,0.1525,0.1543,0.1552,0.1555,0.1585,0.1593,0.1641,0.1679,0.1627,0.1629,0.1727,0.173,0.1732,0.1786,0,0,0,0,0,0,0.1361,0.1369,0.1389,0.141,0.1421,0.147,0.1477,0.1486,0.1527,0.1533,0.1575,0.1581,0.1587,0.1638,0.1643,0.168,0.1631,0.1725,0.1728,0.1731,0.1783,0.179,0.1797,0,0,0,0,0,0.1358,0.1375,0.139,0.1398,0.1442,0.1471,0.1478,0.1512,0.1528,0.1551,0.1583,0.1581,0.1661,0.1641,0.1646,0.1685,0.1724,0.1727,0.1731,0.1779,0.1789,0.1797,0,0,0,0,0,0,0.1351,0.1383,0.14,0.1428,0.1458,0.1481,0.1509,0.1527,0.1569,0.1584,0.1598,0.1607,0.1664,0.1665,0.1643,0.1724,0.1693,0.1698,0.1728,0.1737,0.1744,0.1741,0.1632,0,0,0,0,0,0.1357,0.1383,0.1411,0.1438,0.1455,0.1486,0.1508,0.1532,0.1563,0.1584,0.1613,0.1645,0.1676,0.1701,0.1724,0.1765,0.1771,0.1795,0.1803,0.1809,0.181,0.1852,0.1863,0.1745,0.1745,0.1744,0,0,0.1362,0.1385,0.14,0.144,0.1466,0.1496,0.1503,0.1545,0.1579,0.1584,0.1647,0.1671,0.1692,0.1744,0.177,0.1755,0.1848,0.1813,0.1818,0.1817,0.1857,0.1868,0.1878,0.1747,0.1747,0.1746,0,0,0.1374,0.1406,0.143,0.1457,0.1503,0.1522,0.154,0.1582,0.1615,0.1667,0.1685,0.1731,0.1778,0.1803,0.1819,0.1879,0.1883,0.1895,0.1933,0.1974,0.1984,0.1993,0.2024,0.2035,0.1901,0.1901,0.1902,0,0.1381,0.1415,0.1442,0.1471,0.1501,0.1537,0.157,0.1603,0.1659,0.1692,0.1698,0.1785,0.1804,0.1865,0.1891,0.1895,0.1918,0.1898,0.1983,0.1992,0.2,0.203,0.2042,0.1905,0.1904,0.1904,0.1904,0,0.1403,0.1443,0.1461,0.1511,0.1544,0.1582,0.1625,0.1672,0.1714,0.1748,0.1826,0.1855,0.1908,0.1925,0.1928,0.2001,0.1999,0.1985,0.1959,0.2015,0.2043,0.2054,0.1909,0.1908,0.1907,0.1906,0,0,0.1382,0.1462,0.1471,0.1506,0.1573,0.1598,0.1663,0.1727,0.1776,0.1835,0.1901,0.1958,0.1984,0.2004,0.2021,0.2055,0.2133,0.2053,0.2053,0.208,0.223,0.2124,0.2126,0.2142,0.2144,0.2145,0.223,0,0.1396,0.1454,0.1495,0.156,0.1594,0.1653,0.1707,0.1772,0.183,0.1901,0.1951,0.2017,0.2012,0.2051,0.2088,0.2125,0.2164,0.2112,0.2175,0.2177,0.2072,0.2135,0.2152,0.2238,0.2241,0.2243,0.2244,0,0.1399,0.1442,0.1506,0.1593,0.1615,0.1663,0.1759,0.1813,0.1912,0.1962,0.2036,0.2076,0.2157,0.2134,0.2228,0.2201,0.2224,0.2239,0.2242,0.2129,0.209,0.2169,0.2264,0.2262,0.2261,0.2259,0.2258,0,0.136,0.1448,0.1503,0.1532,0.1631,0.1684,0.1743,0.1838,0.1898,0.2009,0.2066,0.2153,0.2217,0.2259,0.2309,0.2282,0.2399,0.2359,0.2283,0.2276,0.232,0.231,0.2419,0.2419,0.2418,0.2418,0.2418,0,0.1344,0.1391,0.1496,0.1524,0.1597,0.1674,0.1759,0.183,0.1941,0.2006,0.21,0.216,0.2255,0.233,0.2347,0.2359,0.2437,0.23,0.2294,0.2343,0.2334,0.2329,0.2317,0.2421,0.2421,0.242,0.242,0,0.129,0.1361,0.1427,0.1541,0.1582,0.1634,0.1765,0.1817,0.1935,0.2024,0.2069,0.2205,0.2297,0.2376,0.2458,0.2403,0.2423,0.2406,0.2474,0.2469,0.226,0.2251,0.2313,0.231,0.2308,0.2306,0.2304,0,0.1265,0.1296,0.1421,0.1462,0.1522,0.1612,0.1669,0.18,0.1854,0.2026,0.2058,0.2206,0.2277,0.2314,0.2402,0.2443,0.2415,0.2404,0.2303,0.2263,0.2252,0.2246,0.224,0.23,0.2299,0.2298,0.2298,0,0.1215,0.1272,0.1327,0.1408,0.1479,0.1544,0.1639,0.1668,0.1808,0.1934,0.2002,0.2062,0.2171,0.224,0.2306,0.2321,0.2394,0.2377,0.238,0.2285,0.2248,0.2238,0.2235,0.2289,0.229,0.2291,0.2292,0,0.1179,0.12,0.1278,0.134,0.1419,0.1451,0.1512,0.1579,0.1653,0.1832,0.1853,0.2007,0.2141,0.218,0.2235,0.2257,0.221,0.2118,0.2134,0.2145,0.2053,0.1979,0.1943,0,0,0,0,0,0.1133,0.115,0.1203,0.1262,0.1331,0.138,0.148,0.1541,0.167,0.1672,0.1758,0.1846,0.1935,0.2025,0.2016,0.2173,0.2224,0.2153,0.2127,0.2241,0.2251,0.216,0,0,0,0,0,0,0.1104,0.1151,0.1171,0.118,0.1204,0.1268,0.1326,0.1415,0.1426,0.1565,0.1629,0.1743,0.1867,0.1928,0.1984,0.2013,0.196,0.2258,0.2254,0.2235,0.2244,0.2252,0.2162,0,0,0,0,0]},{"header":{"parameterUnit":"m.s-1","parameterCategory":2,"la1":30.2991,"la2":30.254,"lo1":-89.0895,"lo2":-89.0444,"dy":0.0017,"dx":0.0017,"nx":28,"ny":28,"refTime":"2024-02-09T03:00:00:Z","depth":"4","parameterNumber":3,"parameterNumberName":"V-component_of_CURRENTS"},"data":[0,0,0,0,0,0,0,0,0,0,0,0,0,0,0,0,0,0,0,0,0,0,0,0,0,0,0,0,0,0,0,0,0,0,0,0,0,0,0,0,0,0,0,0,0,0,0,0,0,0,0,0,0,0,0,0,0,0,-0.0127,-0.0128,0,-0.018,-0.018,-0.0181,-0.0216,-0.0217,-0.0217,-0.0217,-0.0297,-0.0299,-0.03,0,0,0,0,0,0,0,0,0,0,0,0,0,-0.0072,-0.0072,-0.0127,-0.0128,-0.0129,-0.0179,-0.018,-0.0181,-0.0216,-0.0217,-0.0217,-0.0217,-0.0296,-0.0298,-0.0301,0,0,0,0,0,0,0,0,0,0,0,0,0,-0.0107,-0.0073,-0.0127,-0.0153,-0.0155,-0.0179,-0.018,-0.0181,-0.0216,-0.0217,-0.0217,-0.0218,-0.0295,-0.0298,-0.0301,-0.031,0,0,-0.0309,-0.0311,0,0,0,0,0,0,0,0,-0.0105,-0.0109,-0.0148,-0.0151,-0.0154,-0.0192,-0.019,-0.0226,-0.0216,-0.0193,-0.0217,-0.0218,-0.0264,-0.0269,-0.0278,-0.0314,-0.0317,-0.031,-0.0311,-0.0313,-0.0313,0,0,0,0,0,0,0,-0.0102,-0.0107,-0.0148,-0.0149,-0.0152,-0.0166,-0.0171,-0.0197,-0.0226,-0.0195,-0.0198,-0.0204,-0.0266,-0.0275,-0.028,-0.0319,-0.031,-0.0312,-0.0314,-0.0315,-0.0379,-0.0379,0,0,0,0,0,0,-0.0095,-0.0105,-0.0146,-0.015,-0.013,-0.0166,-0.0172,-0.0179,-0.0225,-0.0233,-0.0203,-0.0205,-0.027,-0.0277,-0.0283,-0.0301,-0.0313,-0.0315,-0.0317,-0.0379,-0.0379,-0.0379,0,0,0,0,0,0,-0.0094,-0.0098,-0.0144,-0.0128,-0.0135,-0.0167,-0.0174,-0.018,-0.0194,-0.0231,-0.0239,-0.0212,-0.0271,-0.0279,-0.0309,-0.0304,-0.0316,-0.0319,-0.0379,-0.0379,-0.0379,-0.0335,0,0,0,0,0,0,-0.0092,-0.0097,-0.0101,-0.0128,-0.0136,-0.0158,-0.0174,-0.0181,-0.0197,-0.02,-0.0241,-0.0249,-0.0272,-0.0304,-0.0312,-0.0309,-0.0321,-0.0379,-0.0379,-0.0379,-0.0336,-0.0334,-0.0331,0,0,0,0,0,-0.009,-0.0092,-0.01,-0.0106,-0.0139,-0.0158,-0.0163,-0.0187,-0.0197,-0.0202,-0.023,-0.0248,-0.031,-0.0307,-0.0315,-0.0313,-0.0379,-0.0379,-0.0379,-0.0338,-0.0334,-0.0331,0,0,0,0,0,0,-0.0071,-0.0097,-0.0106,-0.0117,-0.0136,-0.0164,-0.0171,-0.0187,-0.0213,-0.0216,-0.0251,-0.0261,-0.0286,-0.0306,-0.0302,-0.0332,-0.0346,-0.0348,-0.0312,-0.0309,-0.0306,-0.0285,-0.0324,0,0,0,0,0,-0.0067,-0.0076,-0.0101,-0.011,-0.0117,-0.0144,-0.0155,-0.017,-0.0195,-0.0207,-0.0235,-0.0264,-0.0291,-0.0305,-0.0333,-0.0349,-0.0368,-0.0352,-0.035,-0.0347,-0.0336,-0.0367,-0.0366,-0.0379,-0.0379,-0.0379,0,0,-0.0063,-0.0078,-0.0083,-0.0106,-0.0122,-0.0126,-0.0152,-0.0166,-0.0168,-0.0212,-0.0226,-0.026,-0.0295,-0.0314,-0.0327,-0.033,-0.0354,-0.0347,-0.0345,-0.0335,-0.0367,-0.0366,-0.0364,-0.0379,-0.0379,-0.0379,0,0,-0.0052,-0.007,-0.0071,-0.0082,-0.0102,-0.0116,-0.0119,-0.0146,-0.0158,-0.0178,-0.0209,-0.0237,-0.0277,-0.0299,-0.0315,-0.0314,-0.0342,-0.0325,-0.029,-0.0321,-0.0319,-0.0319,-0.0339,-0.0341,-0.0319,-0.0319,-0.0319,0,-0.0044,-0.0048,-0.0074,-0.0074,-0.0075,-0.0108,-0.0101,-0.0119,-0.0151,-0.0157,-0.0176,-0.0231,-0.0266,-0.0285,-0.0285,-0.0307,-0.0326,-0.0298,-0.0316,-0.0316,-0.0316,-0.0337,-0.0339,-0.0317,-0.0317,-0.0317,-0.0317,0,-0.0032,-0.0033,-0.0034,-0.0041,-0.0046,-0.0048,-0.0068,-0.0078,-0.0097,-0.0115,-0.0141,-0.019,-0.0218,-0.0237,-0.0262,-0.0276,-0.029,-0.0312,-0.0321,-0.0312,-0.0335,-0.0338,-0.0314,-0.0314,-0.0315,-0.0316,0,0,-0.0017,-0.0023,-0.0022,-0.0009,-0.0026,-0.0023,-0.0027,-0.0035,-0.0028,-0.0071,-0.0069,-0.0125,-0.0152,-0.0172,-0.0211,-0.0236,-0.0259,-0.0268,-0.0271,-0.0281,-0.0319,-0.0316,-0.0319,-0.0286,-0.0286,-0.0286,-0.0334,0,0.0003,0.0021,0.001,0.0036,0.0048,0.0028,0.0033,0.0021,0.0004,-0.0005,-0.0059,-0.0076,-0.0127,-0.0138,-0.0175,-0.0237,-0.0265,-0.0244,-0.0332,-0.0334,-0.0327,-0.0322,-0.0287,-0.0337,-0.0338,-0.0338,-0.0338,0,0.0022,0.0035,0.0063,0.0088,0.0092,0.0101,0.0117,0.0116,0.009,0.0073,0.0042,0.0003,-0.0042,-0.0088,-0.0184,-0.0168,-0.0237,-0.0288,-0.0292,-0.0303,-0.0336,-0.035,-0.0344,-0.0344,-0.0343,-0.0343,-0.0343,0,0.0057,0.0077,0.0107,0.0112,0.0127,0.0141,0.0148,0.0139,0.0156,0.0126,0.0133,0.0065,0.004,-0.0055,-0.0163,-0.0174,-0.0269,-0.03,-0.0362,-0.0362,-0.037,-0.0371,-0.0369,-0.0369,-0.0369,-0.0368,-0.0368,0,0.0086,0.0112,0.0127,0.0145,0.019,0.0183,0.0223,0.0218,0.0222,0.025,0.0178,0.0182,0.0047,-0.0021,-0.0135,-0.025,-0.0252,-0.0348,-0.0373,-0.0351,-0.0349,-0.0372,-0.0372,-0.037,-0.037,-0.0369,-0.0369,0,0.0117,0.0122,0.0165,0.0193,0.0207,0.0239,0.0281,0.0311,0.0302,0.0337,0.0336,0.0275,0.018,0.0047,-0.0103,-0.02,-0.032,-0.0364,-0.0314,-0.0337,-0.0401,-0.0398,-0.0432,-0.0432,-0.0433,-0.0433,-0.0433,0,0.0134,0.0156,0.0206,0.0239,0.0253,0.0297,0.0331,0.0345,0.0382,0.0396,0.042,0.0353,0.0289,0.0099,-0.0069,-0.0276,-0.0316,-0.0379,-0.0405,-0.0386,-0.0407,-0.0403,-0.04,-0.0433,-0.0433,-0.0433,-0.0433,0,0.0172,0.0186,0.0222,0.0287,0.0334,0.0391,0.0441,0.0479,0.05,0.0499,0.0508,0.0409,0.03,0.0123,-0.0037,-0.0194,-0.0338,-0.0382,-0.0383,-0.0409,-0.0388,-0.0407,-0.0404,-0.0434,-0.0434,-0.0434,-0.0434,0,0.0203,0.0234,0.0279,0.0338,0.0403,0.047,0.0491,0.0536,0.0572,0.0588,0.0587,0.0463,0.0388,0.0165,0.0015,-0.0134,-0.0186,-0.0245,-0.0255,-0.0256,-0.0202,-0.0149,-0.0135,0,0,0,0,0,0.0231,0.0268,0.0328,0.0395,0.046,0.0498,0.0563,0.0576,0.0598,0.0624,0.0613,0.0514,0.0304,0.0207,0.0061,-0.002,-0.0233,-0.02,-0.031,-0.0438,-0.0437,-0.0406,0,0,0,0,0,0,0.0253,0.0306,0.0333,0.0431,0.0483,0.0561,0.0605,0.0621,0.0631,0.0632,0.0528,0.0472,0.0266,0.0398,0.0061,0.0011,-0.0081,-0.0302,-0.0306,-0.0439,-0.0438,-0.0437,-0.0404,0,0,0,0,0]}]]